College Station, TX

11:02 AM CST on December 04, 2016 (GMT -0600)
Easterwood

Weather History for KCLL - February, 2014

Change the Weather History Date:

Saturday, February 1, 2014

  Actual Average Record
Temperature  
Mean Temperature 65 °F 52 °F  
Max Temperature 71 °F 62 °F 83 °F (1911)
Min Temperature 58 °F 42 °F 12 °F (1951)
Degree Days  
Heating Degree Days 0 13  
Month to date heating degree days 0 13  
Since 1 July heating degree days 1349 1091  
Cooling Degree Days 0 0  
Month to date cooling degree days 0 0  
Year to date cooling degree days 0 11  
Growing Degree Days 16 (Base 50)    
Moisture  
Dew Point 63 °F    
Average Humidity 83    
Maximum Humidity 93    
Minimum Humidity 73    
Precipitation  
Precipitation T in 0.11 in 2.11 in (2006)
Month to date precipitation T 0.11  
Year to date precipitation 1.29 3.35  
Sea Level Pressure  
Sea Level Pressure 29.84 in    
Wind  
Wind Speed 11 mph (SSE)    
Max Wind Speed 21 mph    
Max Gust Speed 28 mph    
Visibility 10 miles    
Events Rain    
T = Trace of Precipitation, MM = Missing Value Source: NWS Daily Summary

Daily Weather History Graph

Daily Weather History Graph

Search for Another Location

Airport or City:

Trip Planner

Search our weather history database for the weather conditions in past years. The results will help you decide how hot, cold, wet, or windy it might be!

Date:

Astronomy

Feb. 01, 2014 Rise Set
Actual Time 7:16 AM CST 6:01 PM CST
Civil Twilight 6:51 AM CST 6:27 PM CST
Nautical Twilight 6:22 AM CST 6:55 PM CST
Astronomical Twilight 5:54 AM CST 7:24 PM CST
Moon 8:18 AM CST (2/1) 8:24 PM CST (2/1)
Length of Visible Light 11h 35m
Length of Day
10h 45m
Waxing Crescent, 5% of the Moon is Illuminated
Feb 1
Waxing Crescent
Feb 6
First Quarter
Feb 14
Full
Feb 22
Last Quarter
Mar 1
New

Hourly Weather History & Observations

Time (CST) Temp. Dew Point Humidity Pressure Visibility Wind Dir Wind Speed Gust Speed Precip Events Conditions
12:53 AM 64.0 °F 61.0 °F 90% 29.85 in 10.0 mi South 13.8 mph 21.9 mph 0.00 in   Overcast
1:53 AM 64.0 °F 61.0 °F 90% 29.84 in 10.0 mi SSE 12.7 mph - N/A   Overcast
2:53 AM 64.0 °F 61.0 °F 90% 29.83 in 10.0 mi SSE 11.5 mph - N/A   Overcast
3:53 AM 64.0 °F 61.0 °F 90% 29.82 in 10.0 mi SSE 11.5 mph - N/A   Overcast
4:53 AM 64.0 °F 62.1 °F 93% 29.80 in 10.0 mi SSE 13.8 mph - 0.00 in   Overcast
5:34 AM 64.4 °F 62.6 °F 94% 29.81 in 10.0 mi SSE 16.1 mph - N/A   Overcast
5:53 AM 64.0 °F 62.1 °F 93% 29.80 in 10.0 mi South 13.8 mph - N/A   Overcast
6:53 AM 64.0 °F 62.1 °F 93% 29.79 in 10.0 mi SSE 17.3 mph - N/A   Overcast
7:53 AM 64.9 °F 62.1 °F 90% 29.81 in 10.0 mi South 15.0 mph - N/A   Overcast
8:13 AM 66.2 °F 62.6 °F 88% 29.83 in 10.0 mi South 12.7 mph - N/A   Overcast
8:53 AM 68.0 °F 63.0 °F 84% 29.83 in 10.0 mi South 16.1 mph 25.3 mph N/A   Overcast
9:53 AM 69.1 °F 63.0 °F 81% 29.86 in 10.0 mi South 16.1 mph 27.6 mph N/A   Overcast
10:18 AM 69.8 °F 62.6 °F 78% 29.86 in 10.0 mi South 17.3 mph 25.3 mph 0.00 in   Overcast
10:40 AM 71.6 °F 62.6 °F 73% 29.86 in 10.0 mi South 17.3 mph 25.3 mph 0.00 in   Overcast
10:53 AM 71.1 °F 63.0 °F 75% 29.86 in 10.0 mi South 19.6 mph 26.5 mph 0.00 in   Overcast
11:53 AM 71.1 °F 63.0 °F 75% 29.86 in 10.0 mi South 15.0 mph 23.0 mph 0.00 in   Overcast
12:27 PM 69.8 °F 62.6 °F 78% 29.87 in 8.0 mi South 9.2 mph - 0.00 in Rain Light Rain
12:42 PM 69.8 °F 64.4 °F 83% 29.86 in 10.0 mi South 9.2 mph - 0.00 in   Overcast
12:53 PM 69.1 °F 64.0 °F 84% 29.84 in 10.0 mi South 6.9 mph - 0.00 in   Overcast
1:53 PM 69.1 °F 64.0 °F 84% 29.81 in 10.0 mi South 5.8 mph - 0.00 in   Overcast
2:53 PM 70.0 °F 64.0 °F 81% 29.80 in 10.0 mi SE 5.8 mph - N/A   Overcast
3:53 PM 71.1 °F 64.0 °F 78% 29.79 in 10.0 mi ESE 6.9 mph - N/A   Overcast
4:00 PM 71.6 °F 62.6 °F 73% 29.80 in 10.0 mi SE 8.1 mph - N/A   Overcast
4:18 PM 71.6 °F 62.6 °F 73% 29.80 in 10.0 mi SE 9.2 mph - N/A   Overcast
4:53 PM 71.1 °F 63.0 °F 75% 29.80 in 10.0 mi SSE 9.2 mph - N/A   Overcast
5:28 PM 71.6 °F 62.6 °F 73% 29.81 in 10.0 mi SSE 12.7 mph - N/A   Overcast
5:53 PM 71.1 °F 63.0 °F 75% 29.81 in 10.0 mi SSE 11.5 mph - N/A   Overcast
6:53 PM 69.1 °F 63.0 °F 81% 29.82 in 10.0 mi SE 5.8 mph - N/A   Overcast
7:48 PM 69.8 °F 62.6 °F 78% 29.84 in 10.0 mi SSE 6.9 mph - 0.00 in   Overcast
7:53 PM 68.0 °F 63.0 °F 84% 29.83 in 10.0 mi SSE 6.9 mph - 0.00 in   Overcast
8:00 PM 68.0 °F 62.6 °F 83% 29.85 in 10.0 mi SSE 6.9 mph - N/A   Overcast
8:53 PM 68.0 °F 64.0 °F 87% 29.86 in 10.0 mi SSE 8.1 mph - N/A   Overcast
9:30 PM 68.0 °F 64.4 °F 88% 29.88 in 10.0 mi SE 4.6 mph - N/A   Overcast
9:53 PM 68.0 °F 64.0 °F 87% 29.87 in 10.0 mi SSE 8.1 mph - N/A   Overcast
10:12 PM 68.0 °F 64.4 °F 88% 29.88 in 10.0 mi SSE 8.1 mph - N/A   Overcast
10:23 PM 66.2 °F 64.4 °F 94% 29.88 in 10.0 mi SSE 6.9 mph - 0.00 in Rain Light Rain
10:34 PM 66.2 °F 64.4 °F 94% 29.88 in 10.0 mi South 4.6 mph - 0.00 in   Overcast
10:53 PM 66.9 °F 64.9 °F 93% 29.88 in 8.0 mi SSE 6.9 mph - 0.00 in Rain Light Rain
11:21 PM 62.6 °F 60.8 °F 94% 29.89 in 8.0 mi NNW 5.8 mph - 0.00 in Rain Light Rain
11:53 PM 57.9 °F 55.9 °F 93% 29.89 in 6.0 mi NNW 8.1 mph - 0.00 in Rain Light Rain